COSMOS 2251 DEB, 35455

Orbit data source: Space-Track

COSMOS 2251 DEB, 35455 is space debris in LEO originally from a launch on Wed, 16 Jun 1993 UTC launched from the Plesetsk Missile And Space Complex (PKMTR). The debris from Iridium 33, an American commercial communications satellite, has been tracked extensively since its accidental collision with the defunct Russian satellite Cosmos 2251 in 2009. This event, occurring at high speed in low Earth orbit (LEO), generated thousands of pieces of space debris, significantly increasing the risk of further collisions. The Iridium 33 debris cloud has impacted space traffic management and orbital debris mitigation strategies, making it a subject of ongoing study in space situational awareness.

Loading next visibility...
Identifier
35455, 1993-036AKZ
Orbit
LEO
Country
Flag of CISCIS
Related business
Manufacturer
Unknown
Mission
Spacecraft
Bus & Motor
Unknown
Mass
Unknown
Launch date (UTC)
1993-06-16 (33 years ago)
Launch vehicle
Unknown
Launch site
Plesetsk Missile And Space Complex (PKMTR)
Object type
Payload
Rocket body
Debris
Shape & HBR
Unknown shape, 0.1 m
Radar Cross Section
Small (<0.1 m²)

Expand to show TLE details & history
Last TLE update: 1 day ago

TLE from 1 day ago
0 COSMOS 2251 DEB
1 35455U 93036AKZ 26174.73633544  .00001744  00000-0  42158-3 0  9997
2 35455  74.0271 291.9850 0100257 349.5313  10.3757 14.50866102893413
Epoch: 2026-06-23T17:40Z
TLE epoch observation values (Epoch: 2026-06-23T17:40:19.382Z)
Latitude
-0.00003°
Longitude
115.00061°
Altitude
655.434 km
Speed
7.567 km/s
True Right ascension
19h 27m 56s
True Declination
0° 00' 00"
Sunlit
Object was in full shadow at epoch
Visualization orbit readout
Latitude
Unknown
Longitude
Unknown
Altitude
Unknown
Speed
Unknown
Apparent Right ascension
Unknown
Apparent Declination
Unknown
Sunlit
N/A
Visualization observer readout
Local Sidereal Time
06:03:23
Azimuth
Unknown
Elevation
Unknown
Doppler factor
Unknown
Orbital elements
Apogee altitude
791.597 km
Perigee altitude
649.261 km
Semi-major axis
7,098.566 km
Eccentricity
0.01003
Inclination
74.0271°
RAAN
291.985°
Arg. of periapsis
349.5313°
True anomaly
10.58519°
Mean anomaly
10.3757°
Eccentric anomaly
10.48019°
Mean motion
3.629 °/min
Orbital period
99.2 mins
BSTAR
0.00042158

Documentation

Showing up to 5 results
|